SAS010 ESSA-ESPA

Flight info

Callsign SAS010
Flight time 1h 3m
Altitude 37000
Route RESNA DCT GOSDI
Aircraft A320/M-SDE3FGHIRWY/LB1

Departure

Time 2026-04-14 12:43
Airport Stockholm-Arlanda Airport (ESSA)

Arrival

Time 2026-04-14 13:46
Airport Luleå Airport (ESPA)
Time Latitude Longitude Altitude Speed Heading
2026-04-14 12:08 59.65330 17.93139 112 ft 0 kts 251°
2026-04-14 12:08 59.65330 17.93138 112 ft 0 kts 250°
2026-04-14 12:36 59.65337 17.93173 112 ft 4 kts 250°
2026-04-14 12:36 59.65346 17.93223 110 ft 4 kts 254°
2026-04-14 12:36 59.65350 17.93273 110 ft 4 kts 292°
2026-04-14 12:36 59.65344 17.93291 108 ft 0 kts 340°
2026-04-14 12:39 59.65345 17.93290 110 ft 1 kts 340°
2026-04-14 12:39 59.65365 17.93277 110 ft 5 kts 340°
2026-04-14 12:40 59.65408 17.93252 112 ft 8 kts 345°
2026-04-14 12:40 59.65466 17.93203 112 ft 10 kts 325°
2026-04-14 12:40 59.65542 17.93159 110 ft 13 kts 346°
2026-04-14 12:40 59.65612 17.93250 109 ft 14 kts 66°
2026-04-14 12:41 59.65656 17.93358 109 ft 9 kts 44°
2026-04-14 12:41 59.65695 17.93436 110 ft 5 kts 47°
2026-04-14 12:41 59.65709 17.93467 111 ft 0 kts 46°
2026-04-14 12:42 59.65713 17.93474 111 ft 3 kts 46°
2026-04-14 12:42 59.65746 17.93541 113 ft 11 kts 45°
2026-04-14 12:42 59.65818 17.93673 116 ft 15 kts 30°
2026-04-14 12:42 59.65870 17.93838 116 ft 16 kts 75°
2026-04-14 12:43 59.65920 17.94235 121 ft 61 kts 78°
2026-04-14 12:43 59.66079 17.95484 119 ft 122 kts 76°
2026-04-14 12:43 59.66336 17.97310 393 ft 142 kts 79°
2026-04-14 12:43 59.66600 17.99135 1146 ft 134 kts 79°
2026-04-14 12:44 59.66844 18.00914 1843 ft 134 kts 82°
2026-04-14 12:44 59.67086 18.02788 2231 ft 150 kts 83°
2026-04-14 12:44 59.67345 18.04951 2435 ft 178 kts 79°
2026-04-14 12:45 59.69435 18.08314 3303 ft 235 kts
2026-04-14 12:45 59.71163 18.08340 3733 ft 261 kts
2026-04-14 12:45 59.73044 18.08188 4476 ft 274 kts 359°
2026-04-14 12:45 59.74966 18.07981 5423 ft 280 kts 359°
2026-04-14 12:46 59.76924 18.07765 6376 ft 284 kts 359°
2026-04-14 12:46 59.78914 18.07559 7310 ft 288 kts 359°
2026-04-14 12:46 59.80935 18.07361 8194 ft 292 kts 359°
2026-04-14 12:46 59.82978 18.07172 9084 ft 297 kts 360°
2026-04-14 12:47 59.85054 18.06990 9976 ft 301 kts
2026-04-14 12:47 59.87170 18.06810 10689 ft 311 kts
2026-04-14 12:47 59.89412 18.06629 10961 ft 335 kts
2026-04-14 12:47 59.91815 18.06436 11261 ft 354 kts
2026-04-14 12:48 59.94300 18.06224 11898 ft 361 kts 360°
2026-04-14 12:48 59.96794 18.05998 12625 ft 365 kts 360°
2026-04-14 12:48 59.99346 18.05762 13362 ft 369 kts 360°
2026-04-14 12:48 60.01926 18.05531 14092 ft 373 kts 360°
2026-04-14 12:49 60.04528 18.05302 14746 ft 377 kts 360°
2026-04-14 12:49 60.07166 18.05068 15418 ft 380 kts 360°
2026-04-14 12:49 60.09803 18.04836 16095 ft 381 kts 360°
2026-04-14 12:49 60.12468 18.04604 16773 ft 383 kts 360°
2026-04-14 12:50 60.15140 18.04372 17454 ft 385 kts 360°
2026-04-14 12:50 60.20529 18.03907 18834 ft 390 kts 360°
2026-04-14 12:50 60.23251 18.03669 19452 ft 392 kts 360°
2026-04-14 12:51 60.25978 18.03428 20100 ft 394 kts 360°
2026-04-14 12:51 60.28719 18.03183 20792 ft 394 kts 359°
2026-04-14 12:51 60.31463 18.02937 21494 ft 395 kts 359°
2026-04-14 12:51 60.34209 18.02698 22170 ft 395 kts
2026-04-14 12:52 60.36943 18.02997 22799 ft 394 kts
2026-04-14 12:52 60.39604 18.04244 23396 ft 394 kts 17°
2026-04-14 12:52 60.42232 18.05867 23964 ft 396 kts 17°
2026-04-14 12:52 60.44881 18.07497 24412 ft 398 kts 17°
2026-04-14 12:53 60.47528 18.09129 24830 ft 401 kts 17°
2026-04-14 12:53 60.50210 18.10790 25252 ft 403 kts 17°
2026-04-14 12:53 60.52901 18.12461 25647 ft 406 kts 17°
2026-04-14 12:53 60.55580 18.14129 26027 ft 409 kts 16°
2026-04-14 12:54 60.58346 18.15853 26420 ft 412 kts 16°
2026-04-14 12:54 60.61052 18.17541 26794 ft 414 kts 16°
2026-04-14 12:54 60.63812 18.19262 27177 ft 417 kts 16°
2026-04-14 12:54 60.66596 18.20999 27558 ft 419 kts 16°
2026-04-14 12:55 60.69390 18.22747 27940 ft 421 kts 15°
2026-04-14 12:55 60.72200 18.24509 28322 ft 424 kts 15°
2026-04-14 12:55 60.75029 18.26286 28687 ft 426 kts 15°
2026-04-14 12:55 60.77866 18.28072 29059 ft 428 kts 15°
2026-04-14 12:56 60.80729 18.29879 29422 ft 431 kts 15°
2026-04-14 12:56 60.83597 18.31689 29788 ft 433 kts 15°
2026-04-14 12:56 60.86487 18.33516 30136 ft 435 kts 15°
2026-04-14 12:56 60.89383 18.35352 30489 ft 437 kts 15°
2026-04-14 12:57 60.92292 18.37203 30888 ft 437 kts 15°
2026-04-14 12:57 60.95182 18.39048 31327 ft 435 kts 15°
2026-04-14 12:57 60.98067 18.40891 31755 ft 434 kts 15°
2026-04-14 12:57 61.00950 18.42734 32203 ft 433 kts 15°
2026-04-14 12:58 61.03824 18.44571 32645 ft 432 kts 15°
2026-04-14 12:58 61.06649 18.46381 33063 ft 431 kts 15°
2026-04-14 12:58 61.09548 18.48241 33496 ft 430 kts 15°
2026-04-14 12:58 61.12366 18.50050 33914 ft 430 kts 15°
2026-04-14 12:59 61.15219 18.51881 34343 ft 429 kts 15°
2026-04-14 12:59 61.18072 18.53723 34722 ft 429 kts 16°
2026-04-14 12:59 61.20920 18.55570 35045 ft 430 kts 16°
2026-04-14 12:59 61.23776 18.57429 35324 ft 431 kts 16°
2026-04-14 13:00 61.26641 18.59294 35606 ft 432 kts 16°
2026-04-14 13:00 61.29506 18.61159 35879 ft 433 kts 16°
2026-04-14 13:00 61.32388 18.63035 36134 ft 434 kts 17°
2026-04-14 13:00 61.35274 18.64919 36409 ft 435 kts 17°
2026-04-14 13:01 61.38161 18.66810 36671 ft 436 kts 17°
2026-04-14 13:01 61.41068 18.68723 36942 ft 437 kts 17°
2026-04-14 13:01 61.43969 18.70635 37203 ft 438 kts 17°
2026-04-14 13:01 61.46875 18.72556 37438 ft 439 kts 17°
2026-04-14 13:02 61.49798 18.74492 37511 ft 441 kts 17°
2026-04-14 13:02 61.55670 18.78377 37518 ft 443 kts 17°
2026-04-14 13:03 61.61552 18.82273 37513 ft 444 kts 17°
2026-04-14 13:03 61.67435 18.86205 37514 ft 444 kts 17°
2026-04-14 13:04 61.73281 18.90130 37513 ft 444 kts 17°
2026-04-14 13:04 61.79166 18.94078 37516 ft 444 kts 17°
2026-04-14 13:05 61.85051 18.98055 37519 ft 444 kts 18°
2026-04-14 13:05 61.90934 19.02067 37523 ft 444 kts 18°
2026-04-14 13:06 61.96829 19.06090 37525 ft 445 kts 18°
2026-04-14 13:06 62.02720 19.10108 37530 ft 445 kts 18°
2026-04-14 13:07 62.08609 19.14155 37532 ft 445 kts 18°
2026-04-14 13:07 62.14508 19.18235 37538 ft 445 kts 18°
2026-04-14 13:08 62.20404 19.22317 37540 ft 446 kts 18°
2026-04-14 13:08 62.26272 19.26382 37537 ft 446 kts 18°
2026-04-14 13:09 62.32169 19.30496 37541 ft 446 kts 18°
2026-04-14 13:09 62.38075 19.34648 37545 ft 446 kts 18°
2026-04-14 13:10 62.43976 19.38807 37545 ft 447 kts 18°
2026-04-14 13:10 62.49893 19.42987 37544 ft 447 kts 18°
2026-04-14 13:11 62.55800 19.47156 37544 ft 447 kts 18°
2026-04-14 13:11 62.61704 19.51368 37548 ft 447 kts 19°
2026-04-14 13:12 62.67610 19.55620 37544 ft 447 kts 18°
2026-04-14 13:12 62.73516 19.59867 37544 ft 447 kts 19°
2026-04-14 13:13 62.79424 19.64125 37545 ft 447 kts 19°
2026-04-14 13:13 62.85327 19.68395 37545 ft 447 kts 19°
2026-04-14 13:14 62.91190 19.72662 37545 ft 447 kts 19°
2026-04-14 13:14 62.97092 19.76957 37548 ft 447 kts 19°
2026-04-14 13:15 63.02999 19.81299 37550 ft 447 kts 19°
2026-04-14 13:15 63.08896 19.85640 37550 ft 447 kts 19°
2026-04-14 13:16 63.14802 19.90026 37545 ft 448 kts 19°
2026-04-14 13:16 63.20703 19.94419 37550 ft 448 kts 19°
2026-04-14 13:17 63.26610 19.98827 37549 ft 448 kts 19°
2026-04-14 13:17 63.32504 20.03244 37551 ft 448 kts 19°
2026-04-14 13:18 63.38415 20.07687 37550 ft 448 kts 19°
2026-04-14 13:18 63.44327 20.12145 37552 ft 448 kts 19°
2026-04-14 13:19 63.50231 20.16650 37554 ft 448 kts 19°
2026-04-14 13:19 63.56103 20.21126 37552 ft 449 kts 20°
2026-04-14 13:20 63.62006 20.25660 37552 ft 449 kts 20°
2026-04-14 13:20 63.67914 20.30216 37557 ft 449 kts 20°
2026-04-14 13:21 63.73821 20.34787 37556 ft 449 kts 20°
2026-04-14 13:21 63.79732 20.39383 37558 ft 449 kts 20°
2026-04-14 13:22 63.85644 20.43997 37559 ft 449 kts 20°
2026-04-14 13:22 63.91550 20.48620 37553 ft 449 kts 20°
2026-04-14 13:22 63.94501 20.50939 37116 ft 447 kts 20°
2026-04-14 13:23 63.97436 20.53248 36520 ft 446 kts 20°
2026-04-14 13:23 64.00367 20.55564 35936 ft 445 kts 20°
2026-04-14 13:23 64.03283 20.57880 35358 ft 443 kts 20°
2026-04-14 13:23 64.06153 20.60161 34793 ft 442 kts 21°
2026-04-14 13:24 64.09053 20.62466 34013 ft 443 kts 21°
2026-04-14 13:24 64.14868 20.67102 32422 ft 444 kts 21°
2026-04-14 13:24 64.17794 20.69443 31525 ft 447 kts 22°
2026-04-14 13:25 64.20741 20.71804 30622 ft 450 kts 22°
2026-04-14 13:25 64.23703 20.74183 29535 ft 452 kts 22°
2026-04-14 13:26 64.32463 20.81251 26355 ft 459 kts 22°
2026-04-14 13:26 64.35421 20.83650 26159 ft 442 kts 22°
2026-04-14 13:26 64.38262 20.85952 26031 ft 425 kts 22°
2026-04-14 13:26 64.41004 20.88181 25906 ft 410 kts 22°
2026-04-14 13:27 64.43652 20.90342 25777 ft 398 kts 23°
2026-04-14 13:27 64.46231 20.92453 25516 ft 391 kts 23°
2026-04-14 13:27 64.48789 20.94552 25157 ft 388 kts 23°
2026-04-14 13:27 64.51322 20.96635 24778 ft 385 kts 23°
2026-04-14 13:28 64.53845 20.98716 24381 ft 383 kts 23°
2026-04-14 13:28 64.56319 21.00763 23950 ft 382 kts 23°
2026-04-14 13:28 64.58848 21.02858 23470 ft 380 kts 23°
2026-04-14 13:28 64.61328 21.04911 23001 ft 377 kts 23°
2026-04-14 13:29 64.63762 21.06923 22546 ft 375 kts 23°
2026-04-14 13:29 64.66207 21.08951 22085 ft 372 kts 23°
2026-04-14 13:29 64.68643 21.10983 21615 ft 370 kts 23°
2026-04-14 13:29 64.71059 21.13003 21151 ft 368 kts 23°
2026-04-14 13:30 64.73464 21.15019 20691 ft 366 kts 23°
2026-04-14 13:30 64.75853 21.17019 20248 ft 363 kts 23°
2026-04-14 13:30 64.78227 21.19004 19804 ft 361 kts 23°
2026-04-14 13:30 64.80587 21.20979 19360 ft 359 kts 23°
2026-04-14 13:31 64.82934 21.22945 18928 ft 357 kts 23°
2026-04-14 13:31 64.85270 21.24911 18435 ft 355 kts 23°
2026-04-14 13:31 64.87586 21.26872 17953 ft 353 kts 23°
2026-04-14 13:31 64.89889 21.28835 17490 ft 351 kts 23°
2026-04-14 13:32 64.92177 21.30790 17027 ft 348 kts 23°
2026-04-14 13:32 64.94447 21.32730 16581 ft 346 kts 22°
2026-04-14 13:32 64.96705 21.34657 16143 ft 344 kts 22°
2026-04-14 13:32 64.98972 21.36443 15719 ft 343 kts 17°
2026-04-14 13:33 65.01314 21.37500 15303 ft 342 kts 12°
2026-04-14 13:33 65.03652 21.38437 14887 ft 340 kts 12°
2026-04-14 13:33 65.05951 21.39370 14484 ft 338 kts 12°
2026-04-14 13:33 65.08260 21.40308 14049 ft 336 kts 12°
2026-04-14 13:34 65.12849 21.42178 13145 ft 333 kts 11°
2026-04-14 13:34 65.15125 21.43112 12727 ft 331 kts 11°
2026-04-14 13:34 65.17390 21.44045 12297 ft 330 kts 11°
2026-04-14 13:35 65.19649 21.44980 11886 ft 329 kts 11°
2026-04-14 13:35 65.21896 21.45911 11476 ft 327 kts 11°
2026-04-14 13:35 65.24115 21.46827 11286 ft 319 kts 11°
2026-04-14 13:35 65.26272 21.47712 11102 ft 311 kts 11°
2026-04-14 13:36 65.28400 21.48589 10794 ft 309 kts 11°
2026-04-14 13:36 65.30508 21.49463 10470 ft 307 kts 11°
2026-04-14 13:36 65.32606 21.50335 10114 ft 306 kts 11°
2026-04-14 13:36 65.34697 21.51205 9761 ft 304 kts 11°
2026-04-14 13:37 65.36077 21.51782 9524 ft 302 kts 11°
2026-04-14 13:37 65.38141 21.52647 9183 ft 300 kts 11°
2026-04-14 13:37 65.40192 21.53502 8777 ft 297 kts 11°
2026-04-14 13:37 65.42217 21.54343 8271 ft 294 kts 11°
2026-04-14 13:38 65.44228 21.55182 7795 ft 293 kts 11°
2026-04-14 13:38 65.46871 21.56288 7412 ft 289 kts 11°
2026-04-14 13:38 65.48842 21.57118 7096 ft 287 kts 11°
2026-04-14 13:38 65.50171 21.57682 6847 ft 286 kts 11°
2026-04-14 13:39 65.52123 21.58510 6462 ft 284 kts 11°
2026-04-14 13:39 65.54065 21.59329 6065 ft 282 kts 11°
2026-04-14 13:39 65.55992 21.60140 5670 ft 280 kts 11°
2026-04-14 13:39 65.57914 21.60951 5286 ft 279 kts 11°
2026-04-14 13:40 65.59814 21.61753 4835 ft 276 kts 11°
2026-04-14 13:40 65.61683 21.62551 4542 ft 274 kts 12°
2026-04-14 13:40 65.63463 21.63978 4405 ft 265 kts 28°
2026-04-14 13:40 65.64967 21.66399 4272 ft 255 kts 44°
2026-04-14 13:41 65.66172 21.69424 4138 ft 245 kts 50°
2026-04-14 13:41 65.67309 21.72409 4027 ft 237 kts 50°
2026-04-14 13:41 65.68368 21.75391 3888 ft 227 kts 62°
2026-04-14 13:41 65.68664 21.78876 3732 ft 204 kts 104°
2026-04-14 13:42 65.67966 21.81702 3399 ft 196 kts 139°
2026-04-14 13:42 65.66981 21.83867 3145 ft 186 kts 137°
2026-04-14 13:42 65.66058 21.85971 2868 ft 178 kts 137°
2026-04-14 13:42 65.65155 21.88016 2629 ft 177 kts 137°
2026-04-14 13:43 65.64253 21.90054 2405 ft 177 kts 138°
2026-04-14 13:43 65.63368 21.92046 2169 ft 172 kts 138°
2026-04-14 13:43 65.62508 21.93984 1930 ft 164 kts 137°
2026-04-14 13:43 65.61705 21.95788 1726 ft 151 kts 137°
2026-04-14 13:44 65.60957 21.97471 1522 ft 143 kts 137°
2026-04-14 13:44 65.60253 21.99052 1357 ft 135 kts 137°
2026-04-14 13:44 65.59567 22.00573 1208 ft 132 kts 137°
2026-04-14 13:44 65.58900 22.02090 986 ft 131 kts 136°
2026-04-14 13:45 65.58243 22.03577 854 ft 132 kts 136°
2026-04-14 13:45 65.57566 22.05082 637 ft 132 kts 137°
2026-04-14 13:45 65.56893 22.06596 481 ft 132 kts 137°
2026-04-14 13:45 65.56220 22.08118 295 ft 133 kts 137°
2026-04-14 13:46 65.55537 22.09633 121 ft 133 kts 136°
2026-04-14 13:46 65.54901 22.11037 58 ft 106 kts 137°
2026-04-14 13:46 65.54471 22.12001 53 ft 72 kts 137°
2026-04-14 13:46 65.54136 22.12740 47 ft 48 kts 137°
2026-04-14 13:47 65.53971 22.13192 44 ft 29 kts 109°
2026-04-14 13:47 65.53943 22.13583 40 ft 17 kts 65°
2026-04-14 13:47 65.54022 22.13607 43 ft 13 kts 329°
2026-04-14 13:47 65.54099 22.13445 43 ft 17 kts 318°
2026-04-14 13:48 65.54192 22.13235 46 ft 20 kts 317°
2026-04-14 13:48 65.54304 22.12983 48 ft 24 kts 317°
2026-04-14 13:48 65.54432 22.12696 51 ft 26 kts 317°
2026-04-14 13:48 65.54564 22.12408 53 ft 23 kts 318°
2026-04-14 13:49 65.54675 22.12162 50 ft 19 kts 317°
2026-04-14 13:49 65.54751 22.12090 56 ft 11 kts 51°
2026-04-14 13:49 65.54809 22.12155 52 ft 11 kts 333°
2026-04-14 13:49 65.54860 22.12055 58 ft 3 kts 341°
2026-04-14 13:50 65.54880 22.12097 58 ft 5 kts 46°
2026-04-14 13:50 65.54901 22.12151 54 ft 2 kts 46°
2026-04-14 13:50 65.54908 22.12170 55 ft 2 kts 47°
2026-04-14 13:50 65.54910 22.12176 55 ft 0 kts 48°